Tracking 19644 objects as of 26-Apr-2019
HD Live streaming from Space Station
objects crossing your sky now

SL-14 DEB

Track SL-14 DEB now!
10-day predictions


NORAD ID: 39986
Int'l Code: 1987-068DN
Perigee: 922.9 km
Apogee: 984.2 km
Inclination: 82.5 °
Period: 104.0 minutes
Semi major axis: 7324 km
RCS: 0.0017 m2 (small)
Launch date: August 18, 1987
Source: Commonwealth of Independent States (former USSR) (CIS)
Launch site: PLESETSK MISSILE AND SPACE COMPLEX (PKMTR)

Note: This is SATELLITE DEBRIS
aabbcc
Your satellite tracking list
Your tracking list is empty




NASA's NSSDC Master Catalog

Two Line Element Set (TLE):
1 39986U 87068DN  19104.03885595  .00000320  00000-0  26788-3 0  9991
2 39986  82.5043 211.1246 0041877 113.0963   9.6300 13.84946883559591
Source of the keplerian elements: AFSPC